[[{"header":{"parameterUnit":"m.s-1","parameterCategory":1,"la1":30.2991,"la2":30.254,"lo1":-89.0895,"lo2":-89.0444,"dy":0.0017,"dx":0.0017,"nx":28,"ny":28,"refTime":"2024-03-06T09:00:00:Z","depth":0,"parameterNumber":2,"parameterNumberName":"U-component_of_WINDS"},"data":[0,0,0,0,0,0,0,0,0,0,0,0,0,0,0,0,0,0,0,0,0,0,0,0,0,0,0,0,0,0,0,0,0,0,0,0,0,0,0,0,0,0,0,0,0,0,0,0,0,0,0,0,0,0,0,0,0,0,2.0127,2.0128,0,2.0218,2.0219,2.022,2.0166,2.0163,2.0161,2.0158,2.0256,2.0261,2.0266,0,0,0,0,0,0,0,0,0,0,0,0,0,1.9911,1.9916,2.0127,2.0128,2.0129,2.0218,2.0219,2.0221,2.0167,2.0163,2.016,2.0157,2.0255,2.026,2.0267,0,0,0,0,0,0,0,0,0,0,0,0,0,2.0004,1.9917,2.0127,2.0113,2.0113,2.0218,2.0219,2.0221,2.0167,2.0163,2.0159,2.0156,2.0253,2.026,2.0267,2.0393,0,0,2.029,2.0294,0,0,0,0,0,0,0,0,1.9999,2.0012,2.0114,2.0114,2.0114,2.0177,2.0179,2.0279,2.0168,2.0147,2.0158,2.0154,2.0233,2.0242,2.0268,2.0397,2.0401,2.0291,2.0296,2.0299,2.0301,0,0,0,0,0,0,0,1.9993,2.0008,2.0163,2.0116,2.0116,2.0104,2.0113,2.0198,2.0211,2.0148,2.0144,2.0156,2.0232,2.0261,2.027,2.0403,2.0291,2.0298,2.0302,2.0305,2.0643,2.0647,0,0,0,0,0,0,1.9987,2.0003,2.016,2.0166,2.0045,2.0111,2.0121,2.0161,2.021,2.0214,2.0159,2.0153,2.025,2.0261,2.0273,2.0426,2.0299,2.0306,2.031,2.0638,2.0644,2.0649,0,0,0,0,0,0,1.9982,2.0001,2.0157,2.0084,2.0102,2.0119,2.0164,2.0164,2.0193,2.0218,2.0221,2.0185,2.0247,2.0262,2.0364,2.0428,2.0309,2.0316,2.0633,2.064,2.0646,2.073,0,0,0,0,0,0,1.9976,2.0,2.0046,2.0085,2.0107,2.0245,2.0168,2.0169,2.0205,2.0198,2.0243,2.0247,2.0245,2.0353,2.0371,2.0436,2.0322,2.0628,2.0636,2.0644,2.0722,2.0739,2.0754,0,0,0,0,0,1.9969,2.0067,2.0049,2.0068,2.0165,2.0248,2.0261,2.0256,2.0211,2.0259,2.0275,2.0246,2.0417,2.0364,2.0384,2.0452,2.0624,2.0634,2.0643,2.0715,2.0736,2.0753,0,0,0,0,0,0,2.0037,2.0072,2.0052,2.0165,2.0204,2.0239,2.0299,2.0277,2.0331,2.0322,2.0314,2.0325,2.0431,2.0451,2.0391,2.0578,2.0514,2.0528,2.0561,2.0581,2.0597,2.0591,2.0329,0,0,0,0,0,2.0065,2.0128,2.0155,2.0253,2.0273,2.0283,2.0319,2.0312,2.0352,2.0369,2.0392,2.0434,2.0498,2.054,2.06,2.0724,2.0734,2.0781,2.0797,2.081,2.0823,2.0893,2.0915,2.0681,2.0681,2.0681,0,0,2.0124,2.015,2.0191,2.0267,2.0296,2.0364,2.0297,2.0371,2.0422,2.038,2.0478,2.0497,2.0543,2.0657,2.0708,2.0677,2.089,2.0822,2.0832,2.0839,2.0906,2.0928,2.0948,2.0688,2.0687,2.0686,0,0,2.0266,2.0291,2.0377,2.0407,2.0452,2.0458,2.0478,2.0517,2.0528,2.0625,2.0596,2.0657,2.0766,2.0801,2.0833,2.099,2.0966,2.1009,2.1093,2.1162,2.118,2.1197,2.1256,2.1277,2.1022,2.1022,2.1022,0,2.0335,2.0434,2.0424,2.0501,2.0536,2.05,2.0588,2.0618,2.0681,2.0707,2.067,2.0808,2.0836,2.0959,2.0998,2.1024,2.1049,2.1005,2.1178,2.1194,2.121,2.1266,2.1288,2.1028,2.1027,2.1026,2.1026,0,2.0517,2.0587,2.0651,2.0711,2.0754,2.0836,2.084,2.0884,2.0873,2.0884,2.0985,2.1017,2.1084,2.1112,2.1102,2.1235,2.1215,2.1178,2.1114,2.1237,2.129,2.1312,2.1035,2.1033,2.1032,2.103,0,0,2.0707,2.0761,2.0785,2.0813,2.086,2.0914,2.0995,2.106,2.11,2.1144,2.1214,2.1307,2.1274,2.1311,2.1304,2.1364,2.149,2.132,2.1322,2.1354,2.1642,2.1671,2.1696,2.1473,2.1477,2.148,2.1639,0,2.0855,2.0995,2.0989,2.1122,2.1188,2.1154,2.1225,2.1263,2.1275,2.1334,2.1347,2.1415,2.1365,2.1387,2.1444,2.1462,2.1548,2.145,2.1541,2.1544,2.1534,2.1723,2.1754,2.1903,2.1659,2.1663,2.1665,0,2.1047,2.1097,2.1236,2.1275,2.1302,2.1366,2.1426,2.1482,2.1525,2.1529,2.1571,2.1555,2.1639,2.1571,2.1689,2.1623,2.1659,2.1674,2.168,2.1691,2.1615,2.1743,2.1949,2.1973,2.1697,2.1695,2.1692,0,2.1175,2.1278,2.1375,2.1399,2.1446,2.1493,2.1514,2.1553,2.1593,2.1645,2.1671,2.1733,2.1768,2.1817,2.1819,2.1769,2.194,2.1871,2.1949,2.1949,2.1989,2.1987,2.2208,2.2007,2.2007,2.2006,2.2006,0,2.1343,2.1431,2.1433,2.1494,2.1591,2.1583,2.168,2.1698,2.1733,2.1797,2.1771,2.1833,2.1831,2.1894,2.1896,2.1996,2.201,2.2019,2.2019,2.2023,2.2023,2.2049,2.204,2.2012,2.2011,2.201,2.2009,0,2.1504,2.1509,2.1614,2.1649,2.166,2.1731,2.1762,2.1821,2.183,2.1912,2.1931,2.1947,2.202,2.2026,2.2111,2.2113,2.2234,2.2221,2.222,2.2219,2.2297,2.2291,2.2546,2.258,2.2354,2.2356,2.2358,0,2.1613,2.1679,2.1722,2.1763,2.1787,2.1853,2.1893,2.1888,2.1932,2.1986,2.2039,2.2109,2.2165,2.2284,2.2304,2.237,2.236,2.2445,2.237,2.2373,2.2366,2.2363,2.2371,2.2461,2.2463,2.2465,2.2467,0,2.1806,2.1805,2.1864,2.1924,2.1972,2.202,2.2064,2.2099,2.21,2.215,2.2224,2.2268,2.2354,2.2425,2.249,2.2514,2.2493,2.249,2.2512,2.2518,2.2516,2.2522,2.2263,2.2485,2.2483,2.2482,2.2481,2.248,2.1946,2.2005,2.2044,2.2111,2.2143,2.2186,2.2243,2.2259,2.232,2.239,2.2383,2.2466,2.2508,2.2592,2.2622,2.2688,2.2659,2.2691,2.2699,2.2708,2.2718,2.2503,2.2699,2.2698,2.2698,2.2697,2.2697,0,2.2141,2.2165,2.2226,2.2288,2.2341,2.2313,2.2361,2.2408,2.2481,2.2522,2.2577,2.2664,2.2733,2.2758,2.2826,2.2874,2.2866,2.2893,2.2891,2.2898,2.2737,2.2713,2.2898,2.2898,2.2898,2.2898,2.2898,2.2898,2.2249,2.2347,2.2351,2.2466,2.2489,2.2569,2.26,2.2639,2.2672,2.2769,2.2826,2.2841,2.2877,2.2948,2.3011,2.3016,2.3044,2.3076,2.3078,2.2929,2.2908,2.2889,2.2866,2.3081,2.3082,2.3233,2.3235,2.3236]},{"header":{"parameterUnit":"m.s-1","parameterCategory":1,"la1":30.2991,"la2":30.254,"lo1":-89.0895,"lo2":-89.0444,"dy":0.0017,"dx":0.0017,"nx":28,"ny":28,"refTime":"2024-03-06T09:00:00:Z","depth":0,"parameterNumber":3,"parameterNumberName":"V-component_of_WINDS"},"data":[0,0,0,0,0,0,0,0,0,0,0,0,0,0,0,0,0,0,0,0,0,0,0,0,0,0,0,0,0,0,0,0,0,0,0,0,0,0,0,0,0,0,0,0,0,0,0,0,0,0,0,0,0,0,0,0,0,0,-0.9372,-0.937,0,-0.9195,-0.9192,-0.919,-0.9204,-0.9206,-0.9209,-0.9211,-0.9023,-0.9016,-0.9009,0,0,0,0,0,0,0,0,0,0,0,0,0,-0.9715,-0.9709,-0.9372,-0.937,-0.9367,-0.9195,-0.9192,-0.919,-0.9203,-0.9206,-0.921,-0.9213,-0.9026,-0.9017,-0.9008,0,0,0,0,0,0,0,0,0,0,0,0,0,-0.9555,-0.9707,-0.9372,-0.9353,-0.935,-0.9195,-0.9192,-0.9189,-0.9202,-0.9206,-0.921,-0.9214,-0.9029,-0.9018,-0.9007,-0.8858,0,0,-0.8972,-0.8968,0,0,0,0,0,0,0,0,-0.9564,-0.9542,-0.9358,-0.9354,-0.935,-0.9225,-0.9245,-0.9078,-0.9201,-0.9258,-0.9212,-0.9216,-0.9087,-0.9071,-0.9029,-0.8849,-0.8841,-0.8971,-0.8965,-0.896,-0.8957,0,0,0,0,0,0,0,-0.9575,-0.955,-0.9301,-0.9356,-0.9351,-0.9352,-0.9333,-0.9213,-0.9152,-0.9254,-0.9254,-0.9233,-0.9085,-0.904,-0.9025,-0.8838,-0.8972,-0.8962,-0.8955,-0.895,-0.8525,-0.852,0,0,0,0,0,0,-0.9591,-0.9559,-0.9307,-0.9296,-0.9469,-0.9342,-0.9322,-0.9261,-0.9154,-0.9141,-0.923,-0.9235,-0.9057,-0.9038,-0.9018,-0.8835,-0.896,-0.8949,-0.8943,-0.8529,-0.8524,-0.8519,0,0,0,0,0,0,-0.9599,-0.9569,-0.9314,-0.9428,-0.9395,-0.9332,-0.9264,-0.9256,-0.921,-0.9136,-0.9124,-0.9195,-0.9059,-0.9034,-0.8897,-0.8828,-0.8944,-0.8934,-0.8535,-0.8527,-0.8521,-0.8468,0,0,0,0,0,0,-0.9608,-0.9571,-0.9515,-0.9426,-0.9389,-0.9198,-0.926,-0.9249,-0.9191,-0.9196,-0.91,-0.9088,-0.9061,-0.8914,-0.8886,-0.8815,-0.8925,-0.854,-0.8531,-0.8523,-0.8475,-0.846,-0.8447,0,0,0,0,0,-0.9621,-0.9506,-0.9512,-0.9482,-0.9318,-0.9194,-0.9173,-0.9146,-0.9186,-0.9128,-0.908,-0.9091,-0.8841,-0.89,-0.8869,-0.8793,-0.8545,-0.8534,-0.8524,-0.8482,-0.8463,-0.8447,0,0,0,0,0,0,-0.9586,-0.9494,-0.95,-0.9354,-0.9282,-0.9197,-0.9123,-0.9127,-0.904,-0.9048,-0.9016,-0.8994,-0.8856,-0.8812,-0.8879,-0.8642,-0.8698,-0.8681,-0.8676,-0.8658,-0.8644,-0.8656,-0.8916,0,0,0,0,0,-0.9562,-0.9471,-0.9395,-0.9273,-0.9237,-0.9186,-0.9131,-0.9117,-0.904,-0.9009,-0.8951,-0.8875,-0.8779,-0.8716,-0.8624,-0.847,-0.8448,-0.8402,-0.8388,-0.8377,-0.8361,-0.8274,-0.8253,-0.8485,-0.8485,-0.8485,0,0,-0.951,-0.9448,-0.9392,-0.9264,-0.9207,-0.9111,-0.916,-0.9057,-0.8985,-0.8993,-0.886,-0.8816,-0.8728,-0.8582,-0.8514,-0.854,-0.8293,-0.8364,-0.8355,-0.8346,-0.8262,-0.824,-0.822,-0.8478,-0.8479,-0.848,0,0,-0.9366,-0.9311,-0.9203,-0.9145,-0.9059,-0.9026,-0.9,-0.8914,-0.8885,-0.8753,-0.8756,-0.867,-0.8506,-0.8443,-0.8389,-0.8223,-0.8228,-0.8193,-0.8117,-0.8033,-0.8015,-0.7998,-0.7936,-0.7915,-0.8179,-0.8179,-0.8179,0,-0.9311,-0.9169,-0.9146,-0.9042,-0.8985,-0.8991,-0.8879,-0.8824,-0.871,-0.867,-0.8701,-0.8495,-0.8437,-0.8275,-0.8235,-0.8192,-0.8159,-0.8203,-0.802,-0.8003,-0.7987,-0.7928,-0.7905,-0.8175,-0.8176,-0.8176,-0.8176,0,-0.9105,-0.9006,-0.8929,-0.8822,-0.8756,-0.8649,-0.8608,-0.8544,-0.8536,-0.8499,-0.8363,-0.8294,-0.8187,-0.8148,-0.8138,-0.7984,-0.8003,-0.8027,-0.8082,-0.7962,-0.7905,-0.7882,-0.817,-0.8171,-0.8172,-0.8173,0,0,-0.8931,-0.8815,-0.8786,-0.8737,-0.8643,-0.8565,-0.8458,-0.8356,-0.83,-0.8223,-0.813,-0.7992,-0.8014,-0.7953,-0.7937,-0.7863,-0.7733,-0.7896,-0.7894,-0.7866,-0.7556,-0.7537,-0.7511,-0.7738,-0.7733,-0.773,-0.7563,0,-0.8776,-0.8588,-0.8564,-0.8396,-0.8303,-0.8308,-0.8214,-0.8145,-0.8108,-0.8023,-0.7982,-0.7883,-0.7921,-0.7884,-0.7812,-0.7764,-0.767,-0.7776,-0.7648,-0.7644,-0.7667,-0.7482,-0.746,-0.7306,-0.7541,-0.7537,-0.7535,0,-0.8568,-0.8487,-0.831,-0.8228,-0.8188,-0.8104,-0.8009,-0.7928,-0.7849,-0.7827,-0.776,-0.7753,-0.764,-0.7702,-0.7544,-0.7617,-0.7564,-0.7532,-0.7526,-0.751,-0.758,-0.7458,-0.7256,-0.7232,-0.75,-0.7503,-0.7505,0,-0.8456,-0.8302,-0.8176,-0.8135,-0.8037,-0.7977,-0.7933,-0.7859,-0.7799,-0.7715,-0.7675,-0.7579,-0.7525,-0.7449,-0.7415,-0.7464,-0.7259,-0.7318,-0.7235,-0.7236,-0.7189,-0.7192,-0.6973,-0.7159,-0.716,-0.716,-0.7161,0,-0.8283,-0.8174,-0.8125,-0.8047,-0.7924,-0.7898,-0.7777,-0.7735,-0.7669,-0.7581,-0.758,-0.7497,-0.7459,-0.737,-0.7343,-0.7215,-0.7191,-0.7169,-0.7162,-0.7167,-0.7169,-0.7129,-0.7138,-0.7154,-0.7155,-0.7157,-0.7158,0,-0.8136,-0.8099,-0.7961,-0.7881,-0.7858,-0.7771,-0.7701,-0.7624,-0.7589,-0.7478,-0.7451,-0.7395,-0.729,-0.725,-0.7121,-0.7103,-0.6955,-0.6959,-0.6982,-0.6979,-0.6897,-0.6905,-0.6642,-0.6606,-0.6819,-0.6817,-0.6816,0,-0.8026,-0.7943,-0.7854,-0.7796,-0.7751,-0.7658,-0.7597,-0.7568,-0.7505,-0.7409,-0.7343,-0.724,-0.7155,-0.6987,-0.6933,-0.6835,-0.6834,-0.6749,-0.6819,-0.6826,-0.683,-0.6834,-0.6824,-0.6735,-0.6733,-0.6731,-0.673,0,-0.7835,-0.7821,-0.7735,-0.7642,-0.757,-0.7495,-0.7422,-0.7374,-0.7334,-0.7263,-0.7157,-0.7091,-0.6961,-0.6857,-0.6756,-0.6709,-0.6711,-0.6709,-0.6684,-0.6686,-0.6702,-0.669,-0.6943,-0.6714,-0.6716,-0.6717,-0.6718,-0.6718,-0.7701,-0.7626,-0.7552,-0.7456,-0.7399,-0.733,-0.7254,-0.7211,-0.7123,-0.7016,-0.7005,-0.689,-0.6813,-0.6678,-0.6626,-0.6535,-0.6557,-0.6521,-0.6512,-0.6503,-0.6496,-0.672,-0.6517,-0.6517,-0.6517,-0.6518,-0.6518,0,-0.7507,-0.746,-0.7372,-0.7271,-0.7194,-0.7208,-0.7127,-0.7062,-0.6962,-0.6891,-0.6808,-0.6686,-0.6585,-0.6525,-0.6423,-0.6362,-0.636,-0.6336,-0.6338,-0.6327,-0.6483,-0.6513,-0.6339,-0.6339,-0.6339,-0.6339,-0.6339,-0.6339,-0.7397,-0.7271,-0.7248,-0.7093,-0.7047,-0.6936,-0.6889,-0.6826,-0.6769,-0.6633,-0.655,-0.6513,-0.6445,-0.6339,-0.6247,-0.6231,-0.6193,-0.6166,-0.6152,-0.6298,-0.6316,-0.6334,-0.6362,-0.6158,-0.6158,-0.6003,-0.6002,-0.6]}]]